Location: Newark
(48.4472°N, 1.4892°E)
Time: 03:34:21
(UTC+00:00)

Explorer 7 - Visible Passes

Search period start: 20 November 2019 00:00
Search period end: 30 November 2019 00:00
Orbit: 485 x 680 km, 50.3° (Epoch: 18 November)

Date Brightness Start Highest point End Pass type
(mag) Time Alt. Az. Time Alt. Az. Time Alt. Az.
20 Nov 8.3 04:17:56 34° ESE 04:17:56 34° ESE 04:20:13 10° ESE visible
20 Nov 8.3 05:54:15 16° W 05:56:16 22° SW 05:59:21 10° SSE visible
21 Nov 8.4 04:22:57 30° SE 04:22:57 30° SE 04:25:05 10° SE visible
21 Nov 8.7 05:59:17 12° WSW 06:00:58 15° SW 06:03:14 10° S visible
22 Nov 8.6 04:28:03 24° SSE 04:28:03 24° SSE 04:29:49 10° SE visible
23 Nov 9.0 04:33:13 17° SSE 04:33:13 17° SSE 04:34:20 10° SSE visible
24 Nov 9.4 04:38:26 11° S 04:38:26 11° S 04:38:34 10° S visible
